Regional Weather Roundup
Issued by NWS Sioux Falls, SD

Home | Current Version | Previous Version | Text Only | Print | Product List | Glossary On
Versions: 1 2 3 4 5 6 7 8 9 10 11 12 13 14 15 16 17 18 19 20 21 22 23 24 25 26 27 28 29 30 31 32 33 34 35 36 37 38 39 40 41 42 43 44 45 46 47 48 49 50
000
ASUS43 KFSD 290710
RWRFSD

WEATHER ROUNDUP FOR SE SOUTH DAKOTA/SW MINNESOTA/NW IOWA
NATIONAL WEATHER SERVICE SIOUX FALLS SD
200 AM CDT WED JUL 29 2015

NOTE: "FAIR" INDICATES FEW OR NO CLOUDS BELOW 12,000 FEET WITH NO
SIGNIFICANT WEATHER AND OR OBSTRUCTIONS TO VISIBILITY.


SDZ038>040-050-052>070-290800-
SOUTHEAST SOUTH DAKOTA

CITY           SKY/WX    TMP DP  RH WIND       PRES   REMARKS
BROOKINGS      CLEAR     61  52  72 SW9       30.04F
CHAMBERLAIN    CLEAR     59  51  75 W7        30.09R
HURON          CLEAR     62  49  62 W9        30.03R
MADISON        FAIR      57  55  94 SW8       30.05F
MITCHELL       CLEAR     63  52  67 W7        30.06S
SIOUX FALLS    CLEAR     61  56  83 CALM      30.06S
WINNER         FAIR      63  47  55 SW8       30.13R
YANKTON        CLEAR     61  54  77 NW8       30.08R
$$

MNZ071-072-080-081-089-090-097-098-290800-
SOUTHWEST MINNESOTA

CITY           SKY/WX    TMP DP  RH WIND       PRES   REMARKS
FAIRMONT       CLEAR     64  55  72 W7        30.02R
JACKSON        CLEAR     61  55  82 W6        30.04R
LUVERNE        CLEAR     61  55  82 CALM      30.06S
MARSHALL       CLEAR     63  52  67 W12       30.00F
MONTEVIDEO     CLEAR     63  54  72 W10       29.97S
PIPESTONE      CLEAR     61  54  77 W3        30.05S
REDWOOD FALLS  CLEAR     66  54  65 W10       29.96F
TRACY          CLEAR     66  55  68 W6        30.01F
WINDOM         CLEAR     61  55  82 W6        30.03R
WORTHINGTON    CLEAR     59  54  82 W7        30.06R
$$

IAZ001>003-012>014-020>022-031-032-NEZ013-014-SDZ071-290800-
NORTHWEST IOWA

CITY           SKY/WX    TMP DP  RH WIND       PRES   REMARKS
CHEROKEE         N/A     58  58 100 CALM      30.07R FOG
DENISON        MOCLDY    63  61  94 CALM      30.05S
ESTHERVILLE    CLEAR     59  57  93 W7        30.04R
LE MARS        CLEAR     59  59 100 CALM      30.08R
ORANGE CITY    CLEAR     61  57  88 CALM      30.07R
SHELDON        CLEAR     59  55  88 CALM      30.05R
SIOUX CITY     CLEAR     63  59  87 W5        30.08R
SPENCER        CLEAR     60  56  86 CALM      30.06R
STORM LAKE     CLEAR     63  59  88 W8        30.08R
$$

ABBREVIATIONS USED IN REMARKS
   TC - TEMPERATURE IN CELSIUS
  WCI - WIND CHILL INDEX
   HX - HEAT INDEX
  VSB - VISIBILITY




USA.gov is the U.S. government's official web portal to all federal, state and local government web resources and services.